Home > Time Zones > World Clock > Weather > Peru > Lima > Past weeks

Flag for Peru Weather past 2 weeks in Lima, Lima, Peru

Now
59 °F

Low clouds.


Feels Like: 58 °F
Forecast: 60 / 72 °F
Wind: 8 mph from South

Location: Lima-Callao / Aerop. Internacional Jorgechavez

Current Time: Jul 31, 2014 at 2:59:12 AM

Latest Report: Jul 31, 2014 at 2:00 AM


Visibility: 3 mi

Pressure: 29.95 "Hg

Humidity: 94%

Dew point: 57 °F

Location of LimaLocation

Historic Weather in Lima — Graph

°F

Lima temperature yesterday

Maximum temperature yesterday: 66 °F (at 3:00 PM)
Minimum temperature yesterday: 59 °F (at 12:00 AM)
Average temperature yesterday: 61 °F

Past Weeks' High & Low Weather Summary

 TemperatureHumidityPressure
High68 °F (Jul 21, 2:00 PM)100% (Jul 28, 6:00 AM)30.07 "Hg (Jul 28, 6:00 AM)
Low57 °F (Jul 28, 6:00 AM)68% (Jul 16, 3:00 PM)29.86 "Hg (Jul 21, 5:00 PM)
Average62 °F86%29.97 "Hg
* Reported Jul 16 2:00 AM — Jul 31 2:00 AM, Lima, Weather by CustomWeather, © 2014

Note: Actual official high and low records may vary slightly from our data, if they occured in-between our weather recording intervals... More about our weather records

Advertising

Lima weather history for previous 24 hours

 ConditionsComfort  
Time TempWeatherWind HumidityBarometerVisibility
2:00 AM
Jul 31
59 °FLow clouds.8 mph94%29.95 "Hg3 mi
1:00 AM61 °FFog.8 mph88%29.98 "Hg3 mi
12:00 AM61 °FFog.6 mph88%29.98 "Hg3 mi
11:00 PM
Jul 30
61 °FOvercast.6 mph88%29.98 "Hg5 mi
10:00 PM61 °FOvercast.8 mph88%29.98 "Hg4 mi
9:00 PM61 °FOvercast.9 mph83%29.98 "Hg5 mi
8:00 PM61 °FOvercast.9 mph83%29.95 "Hg4 mi
7:00 PM61 °FOvercast.12 mph83%29.95 "Hg4 mi
6:00 PM63 °FOvercast.9 mph77%29.92 "Hg4 mi
5:00 PM63 °FPartly sunny.7 mph77%29.92 "HgN/A
4:00 PM64 °FPassing clouds.9 mph73%29.92 "HgN/A
3:00 PM66 °FPassing clouds.6 mph73%29.92 "HgN/A
2:00 PM64 °FOvercast.5 mph73%29.95 "HgN/A
1:00 PM63 °FOvercast.6 mph77%29.98 "HgN/A
12:00 PM63 °FOvercast.6 mph77%30.01 "HgN/A
11:00 AM61 °FOvercast.7 mph83%30.04 "HgN/A
10:00 AM61 °FOvercast.3 mph83%30.04 "HgN/A
9:00 AM61 °FOvercast.5 mph83%30.04 "HgN/A
8:00 AM59 °FOvercast.5 mph88%30.01 "HgN/A
7:00 AM59 °FOvercast.3 mph88%30.01 "HgN/A
6:00 AM59 °FOvercast.3 mph88%29.98 "HgN/A
5:00 AM59 °FOvercast.5 mph88%29.98 "HgN/A
4:00 AM59 °FOvercast.2 mph94%29.98 "HgN/A
3:00 AM59 °FOvercast.2 mph88%29.98 "HgN/A
2:00 AM59 °FOvercast.6 mph88%30.01 "HgN/A
Weather by CustomWeather, © 2014

See weather overviewHow to use our weather pages